User: anonymous   Login
Location: Chillicothe
(39.7950°N, 93.5520°W)
Time: 23:34:00
(UTC-05:00)
Language:

A-11 Canister half - Orbit

View from above orbital plane
View from above orbital plane
View from above satellite
View from above satellite

Ground track
Ground track

The orbit data is extracted from the following two-line orbital elements,

1    53U 60009E   19290.42998002 -.00000112  00000-0 -25591-3 0  9999
2    53  47.2755 291.5087 0096695  79.8229 281.3450 12.17230042638848
Epoch (UTC): 17 October 2019 10:19:10
Eccentricity: 0.0096695
inclination: 47.2755°
perigee height: 1527 km
apogee height: 1682 km
right ascension of ascending node: 291.5087°
argument of perigee: 79.8229°
revolutions per day: 12.17230042
mean anomaly at epoch: 281.3450°
orbit number at epoch: 63884

The dashed part of the orbit path shows where the satellite is in the earth's shadow,  

DLR